sat.trackr.live / text

‹ back to catalog

STARLINK-3626

NORAD 51792 · 2022-017AA

PAYLOAD ACTIVE UNKNOWN

§ Identity

Operator
Country
US
Launch date
2022-02-25
Launch site
AFWTR
Launch vehicle
Mass (kg)
RCS (m²)

Purposes: comms

External: N2YO · Heavens-Above · Gunter

§ Orbital elements

Epoch: 2026-05-25T00:13:35.942592Z

Period
95.44 min
Inclination
53.2154°
Eccentricity
0.0001332
Mean motion
15.08843656 rev/d
Perigee alt
538.8 km
Apogee alt
540.7 km
Semi-major
6,917.9 km
B*
6.7779e-5
RAAN
6.5076°
Arg perigee
89.2703°
Mean anomaly
270.8442°
Rev number
23,549

§ Raw data

STARLINK-36261 51792U 22017AA  26145.00944378  .00000791  00000+0  67779-4 0  99952 51792  53.2154   6.5076 0001332  89.2703 270.8442 15.08843656235494

JSON: /api/v1/satellites/51792 · /tle

For live sub-satellite position, see the globe view (requires WebGL).

§ Visibility from observer

Set your observer location to see the next 7 days of passes ≥ 10°. The values pass through the URL so the page stays shareable.

No JS? Fill the form by hand. The geolocation button needs JavaScript.